WA2GUG Weather Reports


time (UTC)temp
C
wind
direction
speed
KPH
gust
KPH
rain 1hr
cm
rain 24hr
cm
rain mn
cm
humidity
%
barometer
mb
20260502163416 16 44 0.0 0.0 0.00 0.00 0.00 99 1007.2
20260502162916 16 134 0.0 1.6 0.00 0.00 0.00 99 1008.0
20260502162416 16 47 0.0 1.6 0.00 0.00 0.00 99 1008.0
20260502161916 17 41 0.0 0.0 0.00 0.00 0.00 99 1008.0
20260502161416 17 87 0.0 0.0 0.00 0.00 0.00 99 1008.0
20260502160916 17 99 0.0 0.0 0.00 0.00 0.00 99 1008.0
20260502160416 16 106 0.0 4.8 0.00 0.00 0.00 99 1008.0
20260502151915 16 7 0.0 1.6 0.00 0.00 0.00 99 1008.0
20260502151415 16 84 0.0 1.6 0.00 0.00 0.00 99 1008.0
20260502150915 15 11 0.0 0.0 0.00 0.00 0.00 99 1008.0
20260502150415 15 86 0.0 0.0 0.00 0.00 0.00 99 1008.0
20260502130415 12 39 0.0 0.0 0.00 0.00 0.00 99 1008.2
20260502123415 8 45 0.0 0.0 0.00 0.00 0.00 99 1008.2
20260502122916 8 52 0.0 1.6 0.00 0.00 0.00 99 1008.2
20260502122415 8 59 0.0 11.3 0.00 0.00 0.00 99 1008.2
20260502121915 8 40 1.6 11.3 0.00 0.00 0.00 99 1009.0
20260502121415 8 70 0.0 8.0 0.00 0.00 0.00 99 1009.0
20260502120915 7 43 1.6 12.9 0.00 0.00 0.00 99 1008.2
20260502120415 7 47 3.2 12.9 0.00 0.00 0.00 99 1008.1
20260502115915 -17 43 0.0 3.2 0.00 0.00 0.00 99 1008.0
20260502115415 -17 54 0.0 0.0 0.00 0.00 0.00 99 1008.0
20260502114915 -17 65 0.0 3.2 0.00 0.00 0.00 99 1008.0
20260502114415 -17 47 0.0 3.2 0.00 0.00 0.00 99 1008.0
20260502113915 -17 48 0.0 0.0 0.00 0.00 0.00 99 1008.1
20260502113415 -17 76 0.0 0.0 0.00 0.00 0.00 99 1008.0
20260502112915 -17 75 0.0 0.0 0.00 0.00 0.00 99 1008.1
20260502112415 -17 53 0.0 0.0 0.00 0.00 0.00 99 1008.0
20260502111915 -17 58 0.0 0.0 0.00 0.00 0.00 99 1008.0
20260502111415 -17 53 0.0 0.0 0.00 0.00 0.00 99 1008.0
20260502110915 -17 72 0.0 0.0 0.00 0.00 0.00 99 1008.0
20260502110415 -17 57 0.0 1.6 0.00 0.00 0.00 99 1008.0
20260502105915 -17 61 0.0 3.2 0.00 0.00 0.00 99 1008.0
20260502105415 -17 52 0.0 3.2 0.00 0.00 0.00 99 1008.0
20260502104915 -17 90 0.0 0.0 0.00 0.00 0.00 99 1008.0
20260502104415 -17 225 0.0 0.0 0.00 0.00 0.00 99 1008.0
20260502103915 -17 189 0.0 0.0 0.00 0.00 0.00 99 1007.2
20260502103415 -17 140 0.0 0.0 0.00 0.00 0.00 99 1008.0
20260502102915 -17 135 0.0 0.0 0.00 0.00 0.00 99 1007.2
20260502102415 -17 55 0.0 0.0 0.00 0.00 0.00 99 1008.0
20260502101915 -17 92 0.0 0.0 0.00 0.00 0.00 99 1007.2
20260502101415 -17 152 0.0 0.0 0.00 0.00 0.00 99 1008.0
20260502100915 -17 202 0.0 0.0 0.00 0.00 0.00 99 1007.2
20260502100415 -17 247 0.0 0.0 0.00 0.00 0.00 99 1008.0
20260502091415 -17 251 0.0 0.0 0.00 0.00 0.00 99 1008.0
20260502090915 -17 287 0.0 0.0 0.00 0.00 0.00 99 1008.0
20260502090415 -17 324 0.0 0.0 0.00 0.00 0.00 99 1008.0
20260502071415 7 175 0.0 0.0 0.00 0.00 0.00 99 1008.0
20260502070915 7 173 0.0 0.0 0.00 0.00 0.00 99 1007.2
20260502070415 7 42 0.0 0.0 0.00 0.00 0.00 99 1008.0
20260502065915 7 294 0.0 0.0 0.00 0.00 0.00 99 1007.2
20260502065415 7 229 0.0 0.0 0.00 0.00 0.00 99 1008.0
20260502064915 7 226 0.0 0.0 0.00 0.00 0.00 99 1007.2
20260502064415 7 262 0.0 0.0 0.00 0.00 0.00 99 1008.0
20260502063915 7 233 0.0 0.0 0.00 0.00 0.00 99 1007.2
20260502063415 7 279 0.0 0.0 0.00 0.00 0.00 99 1008.0
20260502062915 7 165 0.0 0.0 0.00 0.00 0.00 99 1007.2
20260502062415 7 123 0.0 0.0 0.00 0.00 0.00 99 1008.0
20260502061915 7 219 0.0 0.0 0.00 0.00 0.00 99 1007.2
20260502061415 7 237 0.0 0.0 0.00 0.00 0.00 99 1007.2
20260502060915 7 73 0.0 0.0 0.00 0.00 0.00 99 1007.2
20260502060415 7 303 0.0 0.0 0.00 0.00 0.00 99 1007.2
20260502055915 7 151 0.0 0.0 0.00 0.00 0.00 99 1007.2
20260502055415 7 165 0.0 0.0 0.00 0.00 0.00 99 1008.0
20260502054915 7 182 0.0 0.0 0.00 0.00 0.00 99 1008.0
20260502054415 7 208 0.0 0.0 0.00 0.00 0.00 99 1008.0
20260502053915 7 254 0.0 0.0 0.00 0.00 0.00 99 1007.2
20260502053415 7 223 0.0 0.0 0.00 0.00 0.00 99 1008.0
20260502052915 7 235 0.0 0.0 0.00 0.00 0.00 99 1007.2
20260502052415 7 277 0.0 0.0 0.00 0.00 0.00 99 1008.0
20260502051915 7 212 0.0 0.0 0.00 0.00 0.00 99 1007.2
20260502051415 7 178 0.0 0.0 0.00 0.00 0.00 99 1008.0
20260502050915 7 137 0.0 0.0 0.00 0.00 0.00 99 1008.0
20260502050415 7 176 0.0 0.0 0.00 0.00 0.00 99 1008.0
20260502045915 7 209 0.0 0.0 0.00 0.00 0.00 99 1008.0
20260502045415 7 46 0.0 0.0 0.00 0.00 0.00 99 1008.0
20260502044915 7 12 0.0 0.0 0.00 0.00 0.00 99 1008.0
20260502044415 7 138 0.0 0.0 0.00 0.00 0.00 99 1008.0
20260502043915 7 218 0.0 0.0 0.00 0.00 0.00 99 1008.0
20260502043415 7 309 0.0 0.0 0.00 0.00 0.00 99 1008.0
20260502042915 7 166 0.0 0.0 0.00 0.00 0.00 99 1007.2
20260502042415 7 136 0.0 0.0 0.00 0.00 0.00 99 1008.0
20260502041915 7 181 0.0 0.0 0.00 0.00 0.00 99 1008.0
20260502041415 7 225 0.0 0.0 0.00 0.00 0.00 99 1008.0
20260502040915 7 255 0.0 0.0 0.00 0.00 0.00 99 1008.0
20260502040415 7 256 0.0 0.0 0.00 0.00 0.00 99 1008.0
20260502035915 7 255 0.0 0.0 0.00 0.00 0.00 99 1008.0
20260502035415 7 235 0.0 0.0 0.00 0.00 0.00 99 1008.0
20260502034915 7 228 0.0 0.0 0.00 0.00 0.00 99 1008.0
20260502034415 7 181 0.0 0.0 0.00 0.00 0.00 99 1008.0
20260502033915 7 134 0.0 0.0 0.00 0.00 0.00 99 1008.0
20260502033415 7 147 0.0 0.0 0.00 0.00 0.00 99 1008.0
20260502032915 7 167 0.0 0.0 0.00 0.00 0.00 99 1008.0
20260502032415 7 169 0.0 0.0 0.00 0.00 0.00 99 1008.0
20260502031915 7 2 0.0 0.0 0.00 0.00 0.00 99 1008.0
20260502031415 7 36 0.0 0.0 0.00 0.00 0.00 99 1007.2
20260502030915 8 158 0.0 0.0 0.00 0.00 0.00 99 1008.0
20260502030415 8 91 0.0 0.0 0.00 0.00 0.00 99 1007.2
20260502025915 8 164 0.0 0.0 0.00 0.00 0.00 99 1008.0
20260502025415 8 129 0.0 0.0 0.00 0.00 0.00 99 1007.2
20260502024915 9 134 0.0 0.0 0.00 0.00 0.00 99 1007.2
20260502024415 10 78 0.0 0.0 0.00 0.00 0.00 99 1008.0
20260502023915 10 55 0.0 0.0 0.00 0.00 0.00 99 1008.0
20260502023415 10 63 0.0 0.0 0.00 0.00 0.00 99 1008.0
20260502022915 10 67 0.0 0.0 0.00 0.00 0.00 99 1008.0
20260502022415 10 77 0.0 0.0 0.00 0.00 0.00 99 1008.0
20260502021914 10 55 0.0 0.0 0.00 0.00 0.00 99 1008.0
20260502021415 10 71 0.0 0.0 0.00 0.00 0.00 99 1007.2
20260502020915 10 159 0.0 0.0 0.00 0.00 0.00 99 1008.0
20260502020414 10 173 0.0 0.0 0.00 0.00 0.00 99 1007.2
20260502015915 10 123 0.0 0.0 0.00 0.00 0.00 99 1008.0
20260502015415 10 57 0.0 0.0 0.00 0.00 0.00 99 1007.2
20260502014915 10 136 0.0 0.0 0.00 0.00 0.00 99 1008.0
20260502014414 10 171 0.0 0.0 0.00 0.00 0.00 99 1007.2
20260502013914 10 140 0.0 0.0 0.00 0.00 0.00 99 1008.0
20260502013415 10 144 0.0 0.0 0.00 0.00 0.00 99 1007.2
20260502012914 10 130 0.0 0.0 0.00 0.00 0.00 99 1008.0
20260502012415 10 137 0.0 0.0 0.00 0.00 0.00 99 1007.2
20260502011914 10 141 0.0 0.0 0.00 0.00 0.00 99 1008.0
20260502011414 10 139 0.0 0.0 0.00 0.00 0.00 99 1007.2
20260502010914 10 134 0.0 0.0 0.00 0.00 0.00 99 1007.2
20260502010414 10 139 0.0 0.0 0.00 0.00 0.00 99 1007.2
20260502005914 10 146 0.0 0.0 0.00 0.00 0.00 99 1008.0
20260502005414 10 140 0.0 0.0 0.00 0.00 0.00 99 1007.2
20260502004914 10 168 0.0 0.0 0.00 0.00 0.00 99 1008.0
20260502004414 10 137 0.0 0.0 0.00 0.00 0.00 99 1007.2
20260502003914 10 99 0.0 0.0 0.00 0.00 0.00 99 1008.0
20260502003415 11 144 0.0 0.0 0.00 0.00 0.00 99 1007.2
20260502002914 11 83 0.0 0.0 0.00 0.00 0.00 99 1008.0
20260502002414 11 83 0.0 0.0 0.00 0.00 0.00 99 1007.2
20260502001914 11 54 0.0 0.0 0.00 0.00 0.00 99 1008.0
20260502001414 11 40 0.0 0.0 0.00 0.00 0.00 99 1007.2
20260502000914 12 59 0.0 0.0 0.00 0.00 0.00 99 1008.0
20260502000416 12 9 0.0 0.0 0.00 0.00 0.00 99 1008.0
20260501235914 12 353 0.0 0.0 0.00 0.00 0.00 99 1008.0
20260501235414 12 4 0.0 0.0 0.00 0.00 0.00 99 1008.0
20260501234914 12 3 0.0 0.0 0.00 0.00 0.00 99 1008.0
20260501234414 12 47 0.0 8.0 0.00 0.00 0.00 99 1007.2
20260501233914 12 54 1.6 8.0 0.00 0.00 0.00 99 1008.0
20260501233415 12 32 0.0 0.0 0.00 0.00 0.00 99 1007.1
20260501232914 12 5 0.0 4.8 0.00 0.00 0.00 99 1007.0
20260501232414 13 51 0.0 4.8 0.00 0.00 0.00 99 1007.0
20260501231914 13 52 0.0 0.0 0.00 0.00 0.00 99 1007.0
20260501231414 13 51 0.0 4.8 0.00 0.00 0.00 99 1007.0
20260501230914 13 52 0.0 4.8 0.00 0.00 0.00 99 1007.0
20260501230414 13 49 0.0 1.6 0.00 0.00 0.00 99 1007.0
20260501225914 13 60 0.0 1.6 0.00 0.00 0.00 99 1007.0
20260501225414 13 56 0.0 0.0 0.00 0.00 0.00 99 1007.0
20260501224914 13 36 0.0 0.0 0.00 0.00 0.00 99 1006.2
20260501224414 14 48 0.0 0.0 0.00 0.00 0.00 99 1006.2
20260501223914 14 82 0.0 4.8 0.00 0.00 0.00 99 1007.0
20260501223414 15 356 0.0 4.8 0.00 0.00 0.00 99 1007.0
20260501222914 15 349 0.0 0.0 0.00 0.00 0.00 99 1007.0
20260501222414 15 79 0.0 0.0 0.00 0.00 0.00 99 1006.2
20260501221914 15 37 0.0 0.0 0.00 0.00 0.00 99 1007.0
20260501221414 15 83 0.0 0.0 0.00 0.00 0.00 99 1006.2
20260501220914 15 49 0.0 0.0 0.00 0.00 0.00 99 1006.2
20260501220414 15 73 0.0 0.0 0.00 0.00 0.00 99 1006.2
20260501215914 15 49 0.0 0.0 0.00 0.00 0.00 99 1007.0
20260501215414 15 73 0.0 0.0 0.00 0.00 0.00 99 1006.2
20260501214914 15 93 0.0 0.0 0.00 0.00 0.00 99 1006.2
20260501214414 16 90 0.0 0.0 0.00 0.00 0.00 99 1006.2
20260501213914 16 79 0.0 0.0 0.00 0.00 0.00 99 1007.0
20260501213414 16 89 0.0 0.0 0.00 0.00 0.00 99 1007.0
20260501212914 16 173 0.0 0.0 0.00 0.00 0.00 99 1007.0
20260501212414 16 51 0.0 0.0 0.00 0.00 0.00 99 1006.2
20260501211914 17 86 0.0 0.0 0.00 0.00 0.00 99 1006.2
20260501211414 17 49 0.0 0.0 0.00 0.00 0.00 99 1006.2
20260501210914 17 41 0.0 0.0 0.00 0.00 0.00 99 1007.0
20260501210414 17 72 0.0 0.0 0.00 0.00 0.00 99 1006.2
20260501205914 17 88 0.0 0.0 0.00 0.00 0.00 99 1006.2
20260501205414 17 78 0.0 0.0 0.00 0.00 0.00 99 1007.0
20260501204914 16 83 0.0 0.0 0.00 0.00 0.00 99 1007.0
20260501204414 16 89 0.0 0.0 0.00 0.00 0.00 99 1007.0
20260501203914 16 146 0.0 0.0 0.00 0.00 0.00 99 1007.0
20260501203414 16 166 0.0 0.0 0.00 0.00 0.00 99 1007.0
20260501202914 16 83 0.0 0.0 0.00 0.00 0.00 99 1006.2
20260501202414 17 128 0.0 0.0 0.00 0.00 0.00 99 1006.2
20260501201914 17 255 0.0 0.0 0.00 0.00 0.00 99 1007.0
20260501201414 17 274 0.0 0.0 0.00 0.00 0.00 99 1006.2
20260501200914 17 136 0.0 0.0 0.00 0.00 0.00 99 1006.2
20260501200414 17 49 0.0 0.0 0.00 0.00 0.00 99 1007.0
20260501195414 18 93 0.0 0.0 0.00 0.00 0.00 99 1007.0
20260501194914 19 175 0.0 0.0 0.00 0.00 0.00 99 1007.0
20260501194414 21 96 0.0 3.2 0.00 0.00 0.00 99 1006.2
20260501193914 22 36 0.0 4.8 0.00 0.00 0.00 99 1007.0
20260501193414 23 40 0.0 4.8 0.00 0.00 0.00 99 1006.2
20260501192414 18 39 0.0 6.4 0.00 0.00 0.00 99 1006.2
20260501191914 18 40 0.0 6.4 0.00 0.00 0.00 99 1007.0
20260501191414 20 47 0.0 0.0 0.00 0.00 0.00 99 1006.2
20260501185914 21 95 0.0 0.0 0.00 0.00 0.00 99 1006.2
20260501185414 20 86 0.0 0.0 0.00 0.00 0.00 99 1007.0
20260501184914 22 57 0.0 0.0 0.00 0.00 0.00 99 1007.0
20260501184414 24 58 0.0 0.0 0.00 0.00 0.00 99 1007.0
20260501183914 25 41 0.0 0.0 0.00 0.00 0.00 99 1006.2
20260501183414 24 2 0.0 0.0 0.00 0.00 0.00 99 1007.0
20260501182914 24 358 0.0 1.6 0.00 0.00 0.00 99 1007.0
20260501182414 24 84 0.0 1.6 0.00 0.00 0.00 99 1007.0
20260501181914 23 75 0.0 1.6 0.00 0.00 0.00 99 1007.0
20260501181414 21 39 0.0 1.6 0.00 0.00 0.00 99 1007.0
20260501180914 20 99 0.0 1.6 0.00 0.00 0.00 99 1007.0
20260501180414 18 80 0.0 0.0 0.00 0.00 0.00 99 1007.0
20260501175914 20 39 0.0 1.6 0.00 0.00 0.00 99 1007.0
20260501175414 20 82 0.0 1.6 0.00 0.00 0.00 99 1007.0
20260501174914 19 4 0.0 0.0 0.00 0.00 0.00 99 1007.0
20260501174414 19 127 0.0 0.0 0.00 0.00 0.00 99 1007.0
20260501173914 20 1 0.0 0.0 0.00 0.00 0.00 99 1007.0
20260501173414 21 9 0.0 0.0 0.00 0.00 0.00 99 1007.0
20260501172914 21 93 0.0 8.0 0.00 0.00 0.00 99 1007.0
20260501172414 22 39 0.0 8.0 0.00 0.00 0.00 99 1007.1
20260501171914 23 39 0.0 0.0 0.00 0.00 0.00 99 1007.0
20260501171414 23 79 0.0 0.0 0.00 0.00 0.00 99 1007.1
20260501170914 23 168 0.0 0.0 0.00 0.00 0.00 99 1007.2
20260501170414 22 44 0.0 0.0 0.00 0.00 0.00 99 1007.1
20260501165414 20 33 0.0 1.6 0.00 0.00 0.00 99 1007.2
20260501164914 20 48 0.0 8.0 0.00 0.00 0.00 99 1007.2
20260501164414 20 36 0.0 8.0 0.00 0.00 0.00 99 1007.2
20260501163914 20 87 0.0 1.6 0.00 0.00 0.00 99 1007.2